Вернуться в каталог

NIMBUS 2 DEB

АктивенSSO
NORAD 59974·DEBRIS·🇺🇸 United States

Запущен May 15, 1966 с Vandenberg Space Force Base

Loading…

Ближайшие Пролёты (ближайшие 24 часа)

TLE

СвежийSource: Space-Track

Эпоха: Sep 12, 2026, 04:05 UTC

1 59974U 66040CD  26255.17024251  .00001386  00000-0  24499-2 0  9990
2 59974 100.1467  57.3440 0037150 323.1433  36.7144 13.44334154469470

Отслеживайте NIMBUS 2 DEB в реальном времени с AllMySat

Download on the App Store